Regional Weather Roundup
Issued by NWS

Home | Current Version | Previous Version | Graphics & Text | Print | Product List | Glossary On
Versions: 1 2 3 4 5 6 7 8 9 10 11 12 13 14 15 16 17 18 19 20 21 22 23 24 25 26 27 28 29 30 31 32 33 34 35 36 37 38 39 40 41 42 43 44 45 46 47 48 49 50
949
ASUS43 KOAX 200610
RWRNE

WEATHER ROUNDUP FOR NEBRASKA
NATIONAL WEATHER SERVICE OMAHA NE
1200 AM CST FRI JAN 20 2017

NOTES: SATELLITE DATA IS BEING USED TO AUGMENT CLOUD COVER ABOVE
       12000 FEET.
       "FAIR" INDICATES FEW OR NO CLOUDS BELOW 12,000 FEET WITH NO
       SIGNIFICANT WEATHER AND/OR OBSTRUCTIONS TO VISIBILITY.

  * THESE STATIONS DO NOT REPORT WEATHER SUCH AS RAIN...SNOW OR FOG.

NEZ001>004-019>022-054>056-200700-
NEBRASKA PANHANDLE

CITY           SKY/WX    TMP DP  RH WIND       PRES   REMARKS
SCOTTSBLUFF    CLOUDY    30  22  72 N5        29.50F WCI  25
6HR MIN TEMP:  30; 6HR MAX TEMP:  44;

ALLIANCE       CLOUDY    20  17  88 W3        29.49S
6HR MIN TEMP:  19; 6HR MAX TEMP:  41;

CHADRON        CLOUDY    25  20  81 SW10      29.49S WCI  15
6HR MIN TEMP:  25; 6HR MAX TEMP:  37;

KIMBALL        CLOUDY    32  27  80 W6        29.51S WCI  27
SIDNEY         CLOUDY    31  24  75 W12       29.50F WCI  22
6HR MIN TEMP:  25; 6HR MAX TEMP:  37;

$$

NEZ057>060-069>072-079>082-200700-
SOUTHWEST NEBRASKA

CITY           SKY/WX    TMP DP  RH WIND       PRES   REMARKS
NORTH PLATTE   CLOUDY    38  36  92 SW7       29.55S WCI  33
6HR MIN TEMP:  38; 6HR MAX TEMP:  38;

IMPERIAL       FOG       33  32  96 SW6       29.53F VSB 1/4 WCI  28
6HR MIN TEMP:  33; 6HR MAX TEMP:  35;

LEXINGTON      CLOUDY    37  36  96 SW5       29.56S FOG     WCI  33
MCCOOK         FOG       34  34 100 CALM      29.57R VSB 1/2
6HR MIN TEMP:  32; 6HR MAX TEMP:  36;

OGALLALA       FOG       32  32  99 SW3       29.53S VSB 1/2
$$

NEZ005>010-023>029-035>040-094-200700-
NORTH CENTRAL NEBRASKA

CITY           SKY/WX    TMP DP  RH WIND       PRES   REMARKS
VALENTINE      CLOUDY    29  26  89 SW6       29.45S FOG     WCI  23
6HR MIN TEMP:  29; 6HR MAX TEMP:  41;

AINSWORTH      CLOUDY    34  34  99 S15       29.47S WCI  25
BROKEN BOW     CLOUDY    39  37  92 S9        29.54S WCI  33
6HR MIN TEMP:  39; 6HR MAX TEMP:  41;

O`NEILL        CLOUDY    42  39  91 S12       29.53R
ORD            CLOUDY    40  36  86 S9        29.55S WCI  34
6HR MIN TEMP:  39; 6HR MAX TEMP:  41;

THEDFORD       CLOUDY    34  33  96 SW12      29.50S FOG     WCI  25
$$

NEZ041-046>049-061>064-073>077-083>087-200700-
SOUTH CENTRAL NEBRASKA

CITY           SKY/WX    TMP DP  RH WIND       PRES   REMARKS
GRAND ISLAND   FOG       38  38 100 SW3       29.59R VSB 1/2
6HR MIN TEMP:  38; 6HR MAX TEMP:  39;

AURORA         FOG       38  38 100 S3        29.59R VSB 1/2
HASTINGS       FOG       38  37  97 CALM      29.59R VSB 1/4
6HR MIN TEMP:  38; 6HR MAX TEMP:  41;

HEBRON         FOG       39  39  99 S5        29.58F VSB 1/4
HOLDREGE       FOG       38  38  97 CALM      29.57S VSB 1/4
KEARNEY *      CLOUDY    37  36  93 S3        29.58S
YORK           FOG       37  37 100 CALM      29.58F VSB 1/2
$$

NEZ011>018-030>034-042>045-200700-
NORTHEAST NEBRASKA

CITY           SKY/WX    TMP DP  RH WIND       PRES   REMARKS
NORFOLK        CLOUDY    38  37  97 S5        29.57S FOG     WCI  34
6HR MIN TEMP:  38; 6HR MAX TEMP:  39;

ALBION         FOG      N/A N/A N/A S3        29.58S VSB 1/2
BLAIR          FOG       40  39  99 E7        29.59F VSB 1/2 WCI  35
FREMONT        CLOUDY    39  39 100 SE6       29.60S FOG     WCI  35
TEKAMAH        FOG       37  37 100 S5        29.61S VSB 1/4 WCI  33
6HR MIN TEMP:  35; 6HR MAX TEMP:  39;

WAYNE          CLOUDY    37  37  99 S7        29.58F FOG     WCI  32
$$

NEZ050>053-065>068-078-088>093-200700-
SOUTHEAST NEBRASKA

CITY           SKY/WX    TMP DP  RH WIND       PRES   REMARKS
LINCOLN        CLOUDY    41  40  96 S3        29.60F
6HR MIN TEMP:  39; 6HR MAX TEMP:  42;

OMAHA EPPLEY   FOG       39  36  89 SE3       29.61F VSB 1/2
6HR MIN TEMP:  38; 6HR MAX TEMP:  42; 6HR PCP: TRACE;

BEATRICE       CLOUDY    41  41 100 CALM      29.60S FOG
FALLS CITY     FOG       41  41 100 CALM      29.60F VSB 1/4
6HR MIN TEMP:  40; 6HR MAX TEMP:  43; 6HR PCP: TRACE;

NEBRASKA CITY  FOG       39  39 100 CALM      29.60F VSB 1/4
PLATTSMOUTH    FOG       39  37  93 E6        29.60F VSB 1/4 WCI  35
$$

NEZ044-045-051>053-067-200700-
OMAHA AREA

CITY           SKY/WX    TMP DP  RH WIND       PRES   REMARKS
OMAHA EPPLEY   FOG       39  36  89 SE3       29.61F VSB 1/2
6HR MIN TEMP:  38; 6HR MAX TEMP:  42; 6HR PCP: TRACE;

BLAIR          FOG       40  39  99 E7        29.59F VSB 1/2 WCI  35
FREMONT        CLOUDY    39  39 100 SE6       29.60S FOG     WCI  35
MILLARD        CLOUDY    42  41  97 CALM      29.60F FOG
PLATTSMOUTH    FOG       39  37  93 E6        29.60F VSB 1/4 WCI  35
WAHOO          FOG       38  37  97 SE6       29.59F VSB 1/2 WCI  33
$$




USA.gov is the U.S. government's official web portal to all federal, state and local government web resources and services.